Location: ??????
(41.3164°N, 22.6615°E)
Time: 18:38:51
(UTC+00:00)

ZACube-1 - Pass Details

Date: 05 July 2022
Orbit: 582 x 661 km, 97.6° (Epoch: 06 August)

Event Time Altitude Azimuth Distance (km) Brightness Sun altitude
Rises 01:47:04 0° 21° (NNE) 2,969 ? -11.8°
Reaches altitude 10° 01:49:27 10° 30° (NNE) 2,064 ? -11.5°
Maximum altitude 01:53:35 35° 97° (E) 1,055 ? -11.0°
Drops below altitude 10° 01:57:45 10° 164° (SSE) 2,070 ? -10.4°
Sets 02:00:07 0° 173° (S) 2,979 ? -10.1°
